Dewpoint
50 49 49 49 49 49 50 49 49 49 49 50 50 50 50 50 51 51 51 51 51 52 51 52 52 51 52 52 52 53 53 50 49 47 46 42 51 53 58 58 60 60 57 50 43 33 34 36 35 37 37 37 35 33 33 26 23 21 20 17 16 14 12 14 12 10 9 9 9 12 12 8 7 8 13 30 58 58 61 61 62 64 64 63 65 66 66 66
49 49 48 48 48 49 49 49 49 49 49 49 49 50 50 50 50 51 51 51 51 52 52 52 52 52 52 52 53 53 52 50 47 46 45 48 56 58 58 58 60 60 55 39 35 35 31 32 34 35 35 35 33 28 26 21 20 18 21 17 13 13 13 13 12 9 7 7 11 12 12 12 9 11 13 10 47 58 59 61 62 63 64 65 66 66 65 66
48 48 48 48 48 48 49 49 49 49 49 49 49 49 49 50 50 50 51 51 51 52 52 52 52 52 52 52 52 53 50 47 46 36 27 52 54 59 62 62 61 60 38 35 36 34 28 28 32 33 34 33 30 28 23 19 17 16 17 15 13 14 12 12 11 10 11 11 11 10 10 8 9 11 16 12 46 57 58 60 61 62 63 64 65 65 65 66
48 48 48 48 48 48 49 49 49 49 49 49 49 49 49 50 50 50 50 51 51 51 52 52 52 52 52 52 53 51 48 47 35 28 32 62 57 57 60 61 60 58 36 33 34 35 35 32 31 33 33 32 30 25 18 17 21 15 15 13 13 13 11 12 12 11 11 11 13 11 12 7 6 7 20 12 35 49 56 61 61 62 63 64 64 65 66 66
49 49 47 48 48 48 48 49 49 49 49 49 49 49 49 50 50 50 50 51 51 52 52 51 51 52 52 52 52 50 47 26 17 41 48 63 62 58 60 60 61 49 35 33 33 32 32 34 31 30 32 28 28 23 18 16 13 14 13 14 13 13 11 12 12 12 12 15 9 10 6 7 9 10 10 9 10 21 53 57 61 63 64 64 64 65 66 65
48 48 49 48 48 48 48 49 49 49 49 49 49 49 49 50 50 50 50 51 51 51 51 51 51 51 52 52 50 49 34 10 33 32 63 63 61 59 60 60 62 45 37 33 28 30 31 33 33 31 28 26 22 22 18 17 13 10 11 11 12 12 11 12 12 14 11 11 9 9 10 9 11 12 14 12 13 24 48 58 63 64 65 65 65 65 65 65
47 47 47 48 49 48 48 48 48 48 48 49 49 49 49 49 50 50 51 51 51 51 51 51 51 51 51 52 49 47 37 24 33 40 62 63 61 60 63 63 59 42 36 30 28 27 30 35 33 30 26 24 24 19 19 20 12 10 10 9 9 10 10 10 11 11 9 9 9 9 11 8 10 6 12 17 39 51 57 61 63 64 65 65 64 65 65 65
48 47 47 48 49 48 48 48 49 48 48 49 49 49 49 49 49 50 50 50 51 51 51 51 51 51 51 48 44 41 41 36 29 41 63 62 60 60 60 55 47 41 32 27 25 25 33 36 34 28 25 21 19 20 21 19 17 10 10 10 7 7 8 8 7 9 12 11 11 10 8 7 8 7 10 20 53 56 59 62 63 64 64 64 64 64 64 64
48 48 47 48 48 48 48 48 48 49 48 48 49 49 49 49 49 50 50 50 50 51 51 50 50 51 50 48 44 31 26 38 32 46 62 58 57 53 44 43 43 40 32 27 25 26 37 36 34 28 24 24 24 20 20 13 9 9 8 7 7 7 7 6 7 8 9 12 9 7 8 7 6 12 8 26 55 57 60 61 62 63 63 63 64 64 64 64
49 49 47 48 48 48 48 48 48 48 48 48 48 48 49 49 49 49 50 50 50 50 50 50 50 50 49 45 42 26 19 34 38 53 54 54 55 50 43 40 40 37 32 30 31 31 34 36 31 29 27 24 23 20 18 13 9 8 7 6 5 5 5 6 5 8 13 12 9 9 9 8 9 8 4 18 55 59 60 60 61 62 62 63 64 64 63 63
48 48 47 47 47 48 48 48 48 48 48 48 48 48 48 49 49 49 50 50 50 50 50 50 51 51 46 45 37 24 33 43 50 52 51 53 51 47 44 38 37 33 29 32 31 34 36 38 38 33 24 22 16 12 17 13 11 7 5 5 7 7 7 7 14 12 10 11 10 8 8 9 10 8 4 11 55 58 59 60 60 61 61 62 63 63 63 61
47 47 47 48 48 47 48 48 48 48 49 49 48 48 48 48 49 49 50 50 50 50 50 50 51 49 47 45 39 25 36 35 50 51 52 52 48 45 44 36 33 30 33 31 35 38 39 39 39 32 18 13 11 12 11 11 11 8 6 4 4 6 5 10 9 13 12 10 9 11 9 6 8 5 5 35 54 57 58 59 59 60 61 62 63 63 62 60
48 47 47 47 48 47 47 48 48 48 48 48 48 48 48 49 49 49 50 50 51 50 51 51 51 48 46 29 34 36 32 32 29 30 50 51 43 42 36 32 30 29 35 36 36 37 36 36 33 24 17 16 12 8 6 13 10 10 7 4 2 4 3 5 11 12 11 11 10 9 7 8 5 4 6 53 53 56 57 58 59 59 61 62 63 63 60 60
47 47 47 47 48 47 47 48 48 48 48 48 48 48 48 49 49 50 51 50 51 51 51 51 50 49 45 28 36 38 37 34 30 26 25 46 36 30 31 29 29 29 34 35 32 31 32 28 23 22 19 15 13 14 11 10 14 10 7 6 6 3 4 10 7 8 8 10 9 8 10 7 7 7 6 46 54 55 55 57 57 58 60 62 62 62 60 60
48 48 47 47 47 47 47 48 48 48 47 48 48 48 48 49 49 50 51 51 51 51 51 52 51 47 41 34 39 40 52 45 34 29 29 39 34 29 26 27 25 26 30 31 30 33 32 31 21 17 16 18 15 12 9 8 11 9 7 9 14 5 3 7 11 10 4 9 7 6 13 5 5 5 5 38 55 55 54 56 56 56 58 61 61 60 60 59
48 48 47 47 47 47 47 47 47 47 47 48 48 47 48 49 49 50 51 51 51 51 50 48 49 47 37 17 17 42 32 48 43 38 32 36 32 27 25 26 27 25 26 26 28 29 28 24 19 16 16 14 12 9 9 9 11 14 9 22 16 6 4 4 5 7 5 8 10 5 4 5 2 4 5 20 54 55 54 55 55 55 57 60 59 59 58 57
47 46 46 47 46 46 46 47 47 47 47 47 48 48 48 49 50 50 51 51 50 49 48 45 48 48 30 26 36 31 30 27 27 36 34 33 30 28 28 29 31 25 24 25 27 28 27 23 22 21 16 12 12 10 10 14 15 15 12 11 13 7 9 5 6 7 5 4 3 5 3 5 8 11 7 10 51 53 53 53 53 54 57 58 58 57 57 57
47 47 46 46 46 46 46 47 47 47 47 47 48 47 46 49 50 50 50 51 50 48 47 48 45 41 34 37 29 29 27 24 20 31 33 32 29 28 30 30 30 27 25 24 28 26 25 22 18 22 22 21 14 14 13 10 13 13 17 13 11 10 11 6 5 2 4 3 4 5 5 5 3 6 10 6 12 51 51 51 53 54 56 57 57 57 56 56
47 46 46 46 46 46 46 46 47 46 47 48 47 48 49 50 51 48 44 46 44 40 34 40 40 23 21 30 28 30 29 24 21 25 31 32 31 29 30 31 28 26 26 26 26 26 22 23 21 17 16 15 14 10 11 10 12 14 15 14 15 12 9 7 6 5 2 3 2 3 3 3 6 10 14 31 47 47 50 51 53 54 55 56 56 56 55 55
47 47 46 46 46 46 46 46 46 47 47 46 44 43 46 47 46 46 45 44 42 36 27 33 37 34 30 22 25 33 33 23 16 14 22 30 29 28 28 26 27 25 24 26 27 29 21 20 16 16 16 18 23 13 10 9 10 9 9 9 8 8 9 12 12 8 2 2 5 5 8 8 12 14 17 25 49 49 49 50 51 52 53 54 54 54 54 54
47 46 46 45 46 46 46 47 47 48 48 45 44 41 40 41 33 38 40 39 41 39 38 36 37 35 29 27 25 25 26 22 15 13 13 29 28 26 26 24 23 26 25 24 26 32 20 20 19 17 16 15 17 22 25 20 22 11 12 13 11 12 13 14 15 9 13 19 7 15 9 11 13 21 17 25 48 48 49 49 49 51 52 53 54 53 53 54
47 45 45 45 45 46 46 46 48 47 48 45 43 38 38 37 34 32 28 24 35 39 37 34 34 34 33 32 31 30 30 24 13 10 12 27 24 25 23 22 21 21 26 26 25 23 22 19 20 18 17 20 23 25 25 26 23 21 16 15 15 13 17 17 18 16 14 12 13 14 7 9 18 21 24 21 38 47 49 48 48 49 51 52 54 53 53 54
47 45 45 45 46 46 46 47 48 48 44 43 41 39 36 31 37 33 27 26 26 31 38 38 36 34 32 33 33 36 31 25 12 10 10 26 22 25 21 21 21 21 24 25 23 25 23 18 19 18 20 22 21 20 22 26 29 22 21 16 12 12 14 14 22 12 12 18 16 18 10 22 30 27 24 24 23 27 47 48 48 49 51 52 53 53 53 54
46 45 45 45 46 46 46 47 47 45 43 43 40 36 35 34 30 27 28 32 28 29 33 36 36 35 33 32 33 34 31 27 20 10 17 22 19 20 20 21 21 22 22 23 23 21 17 17 18 18 17 17 20 20 23 20 14 29 22 14 12 15 16 15 18 17 25 23 28 23 28 24 29 17 20 20 24 19 38 47 47 49 51 52 53 54 54 54
45 45 45 45 45 46 46 46 43 43 43 43 42 42 40 38 36 30 35 34 34 30 29 28 36 34 31 36 35 32 26 24 23 11 18 19 15 17 15 22 21 20 22 23 23 22 22 21 18 15 15 13 16 14 16 21 16 21 31 22 23 22 21 22 23 17 22 17 25 13 11 17 24 24 23 20 20 23 23 44 45 47 49 50 53 54 54 54
45 46 45 45 45 45 46 43 43 42 41 38 40 40 38 39 39 36 37 36 28 33 23 21 28 21 30 29 32 28 25 21 22 13 17 16 20 17 15 14 19 18 20 22 22 24 22 24 18 14 14 12 11 11 11 18 17 22 22 27 23 21 24 23 20 18 11 9 17 24 12 13 22 19 19 23 35 43 45 44 43 42 40 42 46 50 53 53
45 46 46 45 45 46 42 40 43 42 38 36 34 38 40 38 43 41 30 30 24 29 17 17 14 17 21 24 25 21 21 21 19 16 17 21 15 16 11 11 18 19 20 27 23 18 20 19 19 15 15 12 12 12 11 14 20 19 25 24 20 20 19 21 20 14 17 24 26 22 18 9 10 15 22 30 43 45 47 48 50 50 50 42 44 53 55 55
45 45 45 45 45 45 43 43 42 40 38 38 40 40 41 40 42 45 35 26 20 23 13 14 14 26 23 22 18 16 20 19 16 14 15 17 16 14 13 11 16 15 17 20 18 22 28 22 20 18 15 12 10 11 16 16 16 19 24 20 18 17 20 15 13 15 17 18 11 23 18 12 12 28 39 37 41 43 46 49 50 51 52 52 53 56 57 58
45 46 45 45 45 45 45 44 42 40 40 41 42 41 41 42 44 38 31 25 30 16 21 14 25 19 20 18 14 14 14 16 15 15 17 18 18 15 12 14 15 17 18 16 17 24 20 19 17 16 15 13 12 10 17 15 15 17 21 20 20 16 14 13 15 12 21 12 9 18 23 7 11 40 43 43 43 44 46 48 50 52 52 53 54 56 57 57
44 44 45 45 45 43 42 45 43 42 42 43 42 40 43 43 36 28 18 16 32 23 18 19 18 15 17 15 13 12 12 14 14 17 19 17 17 22 21 16 14 16 14 16 15 16 16 25 25 17 14 15 14 14 16 18 17 18 16 15 13 17 17 26 24 24 17 8 14 21 26 7 17 40 43 43 45 46 47 48 50 51 53 54 54 55 56 57
44 44 45 45 43 42 41 37 38 42 43 42 41 42 42 40 33 26 16 24 24 17 19 18 17 15 12 12 11 12 11 13 19 17 19 20 19 21 20 18 19 21 24 23 19 17 14 12 12 13 20 17 17 17 17 16 16 13 15 15 12 16 20 20 21 22 8 11 20 21 16 10 8 27 44 49 50 50 49 49 50 51 52 54 55 55 56 57
44 45 45 44 44 43 41 36 43 43 43 43 43 41 37 27 26 27 20 30 19 20 16 14 16 12 11 10 13 12 10 14 15 7 16 19 23 19 19 19 19 15 15 18 16 22 19 14 11 12 26 15 14 15 14 15 12 12 16 16 12 12 12 6 13 5 7 11 15 18 12 26 36 40 47 48 50 50 50 51 51 52 52 53 54 55 56 56
46 46 46 45 45 43 42 43 43 43 43 43 44 40 34 25 15 24 25 26 21 21 20 16 15 14 12 11 14 14 14 13 16 12 13 19 20 19 19 17 21 20 15 26 20 19 16 20 10 10 15 22 15 14 14 12 12 10 10 17 12 8 8 4 13 11 12 14 20 17 19 22 38 41 47 48 50 50 50 51 51 52 52 52 53 54 55 55
46 47 45 45 44 44 43 45 44 44 43 44 41 37 32 22 21 39 25 28 23 20 18 17 16 16 14 12 14 14 13 14 12 9 6 16 19 22 18 15 17 19 24 23 14 17 11 12 12 13 12 17 15 15 14 19 15 10 13 11 14 16 13 5 10 5 7 7 18 25 12 18 32 38 46 49 51 51 51 51 51 52 52 53 53 53 54 55
47 47 45 45 45 45 44 44 44 44 44 42 37 32 24 22 29 30 28 21 16 13 9 16 15 16 15 15 16 14 14 15 13 1 0 12 17 21 19 16 15 18 20 15 25 18 13 17 18 15 14 17 14 18 16 15 15 18 13 14 14 13 21 11 17 16 16 13 13 22 21 33 38 45 47 49 51 51 52 52 52 52 52 53 53 53 53 54
46 43 44 43 45 45 45 44 43 44 43 40 32 29 28 30 29 29 25 17 12 8 6 11 15 15 18 16 19 14 15 17 13 5 7 7 11 16 17 15 14 14 18 20 25 13 16 19 24 18 18 16 16 19 19 15 16 23 11 12 12 18 12 14 13 23 17 17 11 23 35 38 41 44 45 49 50 51 51 51 52 52 52 53 53 53 54 54
42 43 41 44 45 46 45 44 43 43 43 40 31 26 32 31 28 27 29 17 9 6 4 16 13 12 18 15 17 13 16 16 21 11 7 5 12 10 13 13 13 14 15 17 20 23 17 20 28 15 13 16 18 17 17 16 20 12 14 12 16 18 21 17 13 15 9 8 14 27 33 34 31 28 41 46 48 48 50 51 51 51 52 52 53 53 54 54
43 42 43 44 44 46 45 44 43 43 42 39 31 37 36 30 31 28 30 24 10 7 9 11 16 11 17 15 12 9 15 13 21 13 19 6 17 16 10 11 11 12 13 14 13 24 16 11 17 19 14 16 18 16 14 14 15 12 13 16 12 12 9 22 18 5 5 5 7 26 31 31 30 33 40 44 47 48 49 50 50 50 50 50 51 51 51 51
44 41 41 43 46 45 44 44 44 43 38 34 29 31 35 32 31 29 26 10 13 10 12 11 17 20 16 16 17 11 13 15 16 16 11 12 13 34 30 15 13 10 10 12 11 19 27 14 19 24 18 16 15 15 17 16 13 14 11 11 20 24 24 10 14 14 14 10 10 18 28 22 35 37 44 46 47 48 47 48 49 49 49 49 50 49 49 50
41 41 43 47 46 45 44 44 43 40 35 29 31 32 31 25 23 23 24 14 12 12 19 18 14 18 19 20 15 17 17 15 13 19 22 19 22 29 30 32 29 24 7 9 9 12 13 25 13 22 24 16 17 17 17 17 14 14 13 14 13 22 24 17 25 13 10 12 12 19 22 27 36 45 46 47 48 49 48 47 48 48 49 49 48 49 49 48
42 42 43 48 45 43 43 42 38 36 34 33 31 26 23 21 21 19 15 17 11 12 12 19 18 15 20 17 11 11 18 19 25 20 25 31 29 26 33 34 31 31 26 5 9 21 13 16 19 26 18 22 19 22 16 15 14 16 15 15 12 12 10 10 15 26 21 18 15 19 21 31 44 48 48 48 48 49 49 48 48 48 48 48 47 47 47 47
43 39 42 48 43 42 40 35 34 36 33 30 26 24 19 30 21 17 12 14 14 9 9 17 20 19 20 18 16 13 22 19 21 27 30 32 35 34 37 36 35 34 34 32 29 35 26 27 22 14 19 20 20 33 33 27 22 20 20 29 19 21 19 18 9 19 25 28 29 29 31 31 45 48 48 47 47 48 48 48 47 47 47 47 46 46 46 46
43 41 51 51 46 39 34 31 35 30 30 30 25 21 20 20 19 13 12 13 12 8 15 19 19 17 22 12 16 15 20 21 20 26 34 34 36 37 38 40 40 40 36 38 38 36 52 20 18 18 19 25 23 30 33 35 36 37 37 38 34 30 22 18 22 26 24 25 24 24 31 35 44 48 48 47 47 46 46 46 46 47 46 45 45 44 44 44
44 44 47 49 49 40 33 27 25 26 28 26 27 24 24 22 20 17 17 18 21 16 16 19 19 16 18 15 15 14 18 22 23 28 30 34 37 39 40 41 41 42 42 38 36 38 23 27 21 19 16 20 22 27 30 33 35 36 36 38 38 34 34 33 31 29 27 27 27 27 28 34 45 48 46 45 44 43 43 43 43 44 44 43 43 43 43 43
43 46 46 47 46 38 31 36 36 32 34 36 37 34 33 29 20 21 21 19 20 19 28 24 21 23 20 22 20 17 21 18 28 30 33 37 37 39 40 42 43 43 46 48 49 40 32 31 27 19 16 11 11 16 26 28 33 34 40 39 40 39 37 27 18 25 27 28 30 29 32 39 44 45 44 44 42 41 41 42 42 42 41 41 42 42 42 42
41 32 40 42 43 40 40 43 40 39 36 36 29 32 30 29 26 19 20 24 19 20 23 24 19 21 20 22 22 18 24 33 29 33 34 36 38 38 41 41 43 44 47 49 48 42 34 35 32 26 24 22 26 31 35 35 37 35 37 38 39 39 38 31 29 27 28 28 31 36 38 39 40 41 41 41 40 40 40 40 40 40 41 41 41 41 41 41
45 37 33 33 39 40 39 41 40 39 33 34 25 31 28 30 30 26 22 23 21 20 24 23 21 22 24 25 24 24 24 31 32 33 34 37 39 39 39 43 42 47 46 44 47 37 34 32 35 35 34 34 37 37 38 38 37 37 37 37 38 38 38 34 26 26 32 33 32 39 40 38 38 39 40 39 39 38 38 39 39 40 40 40 40 40 41 40
36 39 43 41 34 30 31 32 38 38 39 37 33 33 30 29 29 23 26 22 21 22 23 21 24 21 19 23 27 17 25 32 34 29 36 36 38 38 38 39 39 45 44 42 43 38 33 31 36 36 35 36 36 35 36 35 36 36 37 37 37 38 38 37 37 38 33 30 32 39 39 37 37 38 39 39 39 38 37 37 38 40 40 39 39 39 39 39
44 42 43 44 34 38 36 37 39 38 37 36 32 30 30 30 28 29 26 27 23 28 22 17 23 20 21 21 27 24 26 23 26 34 34 34 35 33 32 36 38 43 42 42 42 41 35 33 36 36 35 35 35 35 35 35 35 35 35 36 37 37 37 38 38 38 37 37 40 39 37 35 37 37 38 39 40 39 38 38 37 37 39 39 38 39 38 38
39 39 38 42 43 40 38 36 37 36 33 36 24 30 31 29 27 30 26 26 21 26 27 30 25 27 28 29 32 31 32 31 32 26 34 35 32 35 33 34 34 39 43 41 44 38 35 31 39 36 34 34 34 35 34 34 34 33 34 35 36 36 36 36 37 38 38 37 36 36 34 33 37 38 38 39 39 38 37 37 36 36 37 38 38 38 38 38
47 47 46 42 36 37 38 37 34 33 30 25 24 29 30 33 29 29 29 28 26 27 29 26 29 29 29 29 29 30 31 33 31 30 34 34 27 35 31 31 38 36 41 41 41 40 37 32 37 31 31 32 34 33 33 33 32 32 33 34 36 35 34 35 34 36 37 35 36 35 33 31 36 37 37 37 37 37 36 36 36 37 37 37 38 38 38 38
50 51 47 43 35 40 36 34 31 29 23 27 30 30 28 29 32 28 21 22 24 28 30 29 31 30 31 30 29 31 33 31 30 28 25 27 36 36 37 37 37 37 37 40 40 36 39 34 31 30 28 30 35 35 34 32 30 28 30 33 36 36 36 37 37 37 37 37 34 32 32 37 37 36 34 34 35 35 36 36 36 37 37 37 37 38 38 38